| time (UTC) | temp F | wind direction | speed MPH | gust MPH | rain 1hr in | rain 24hr in | rain mn in | humidity % | barometer mb |
| 20260506230347 | 67 | 0 | 0.0 | 0.0 | 0.00 | 0.17 | 0.17 | 57 | 757.5 |
| 20260506225347 | 67 | 0 | 0.0 | 0.0 | 0.00 | 0.17 | 0.17 | 57 | 757.5 |
| 20260506224347 | 68 | 0 | 0.0 | 0.0 | 0.00 | 0.17 | 0.17 | 57 | 757.5 |
| 20260506222802 | 68 | 0 | 0.0 | 2.0 | 0.00 | 0.17 | 0.17 | 57 | 757.5 |
| 20260506221802 | 68 | 205 | 1.0 | 3.0 | 0.00 | 0.17 | 0.17 | 58 | 757.5 |
| 20260506220801 | 67 | 204 | 1.0 | 3.0 | 0.00 | 0.17 | 0.17 | 58 | 757.5 |
| 20260506215217 | 67 | 205 | 1.0 | 3.0 | 0.00 | 0.17 | 0.17 | 57 | 757.5 |
| 20260506214217 | 67 | 209 | 2.0 | 4.0 | 0.00 | 0.17 | 0.17 | 56 | 757.5 |
| 20260506213216 | 67 | 210 | 2.0 | 4.0 | 0.00 | 0.17 | 0.17 | 56 | 757.5 |
| 20260506211622 | 66 | 0 | 0.0 | 0.0 | 0.00 | 0.17 | 0.17 | 56 | 757.5 |
| 20260506210622 | 66 | 0 | 0.0 | 5.0 | 0.00 | 0.17 | 0.17 | 56 | 757.5 |
| 20260506205621 | 65 | 209 | 2.0 | 3.0 | 0.00 | 0.17 | 0.17 | 57 | 757.5 |
| 20260506204037 | 65 | 209 | 2.0 | 3.0 | 0.00 | 0.17 | 0.17 | 57 | 757.5 |
| 20260506203037 | 65 | 209 | 1.0 | 4.0 | 0.00 | 0.17 | 0.17 | 56 | 757.5 |
| 20260506202036 | 65 | 209 | 2.0 | 4.0 | 0.00 | 0.17 | 0.17 | 56 | 757.5 |
| 20260506200446 | 65 | 209 | 2.0 | 3.0 | 0.01 | 0.17 | 0.17 | 56 | 757.5 |
| 20260506195446 | 65 | 205 | 1.0 | 4.0 | 0.01 | 0.17 | 0.17 | 56 | 757.5 |
| 20260506194446 | 64 | 211 | 2.0 | 6.0 | 0.01 | 0.17 | 0.17 | 56 | 757.5 |
| 20260506192857 | 64 | 212 | 3.0 | 5.0 | 0.01 | 0.17 | 0.17 | 57 | 757.5 |
| 20260506191857 | 64 | 218 | 2.0 | 4.0 | 0.01 | 0.17 | 0.17 | 59 | 757.5 |
| 20260506190857 | 63 | 202 | 2.0 | 6.0 | 0.02 | 0.17 | 0.17 | 60 | 757.5 |
| 20260506185306 | 62 | 190 | 2.0 | 6.0 | 0.01 | 0.16 | 0.16 | 60 | 757.5 |
| 20260506184303 | 62 | 196 | 2.0 | 6.0 | 0.01 | 0.16 | 0.16 | 59 | 757.5 |
| 20260506183303 | 62 | 209 | 5.0 | 8.0 | 0.01 | 0.16 | 0.16 | 58 | 757.5 |
| 20260506181732 | 62 | 215 | 4.0 | 6.0 | 0.02 | 0.16 | 0.16 | 58 | 757.5 |
| 20260506180731 | 62 | 207 | 3.0 | 5.0 | 0.01 | 0.15 | 0.15 | 57 | 757.5 |
| 20260506175731 | 61 | 204 | 4.0 | 6.0 | 0.02 | 0.15 | 0.15 | 58 | 757.5 |
| 20260506174141 | 61 | 210 | 4.0 | 8.0 | 0.02 | 0.15 | 0.15 | 59 | 757.5 |
| 20260506173141 | 61 | 211 | 5.0 | 9.0 | 0.03 | 0.15 | 0.15 | 60 | 757.5 |
| 20260506172140 | 61 | 211 | 4.0 | 9.0 | 0.02 | 0.14 | 0.14 | 60 | 757.5 |
| 20260506170548 | 61 | 214 | 4.0 | 8.0 | 0.03 | 0.14 | 0.14 | 60 | 757.5 |
| 20260506165548 | 61 | 217 | 3.0 | 7.0 | 0.03 | 0.13 | 0.13 | 60 | 757.5 |
| 20260506164547 | 61 | 198 | 3.0 | 7.0 | 0.04 | 0.13 | 0.13 | 60 | 757.5 |
| 20260506162953 | 61 | 211 | 4.0 | 8.0 | 0.04 | 0.12 | 0.12 | 60 | 757.5 |
| 20260506161953 | 61 | 211 | 3.0 | 6.0 | 0.04 | 0.12 | 0.12 | 60 | 757.5 |
| 20260506160953 | 60 | 203 | 3.0 | 7.0 | 0.04 | 0.11 | 0.11 | 59 | 757.5 |
| 20260506155358 | 61 | 205 | 3.0 | 8.0 | 0.04 | 0.10 | 0.10 | 58 | 757.5 |
| 20260506154400 | 61 | 198 | 3.0 | 6.0 | 0.04 | 0.09 | 0.09 | 58 | 757.5 |
| 20260506153358 | 61 | 201 | 3.0 | 5.0 | 0.05 | 0.09 | 0.09 | 58 | 757.5 |
| 20260506151811 | 61 | 210 | 2.0 | 3.0 | 0.06 | 0.08 | 0.08 | 59 | 757.5 |
| 20260506150811 | 61 | 207 | 1.0 | 4.0 | 0.06 | 0.07 | 0.07 | 59 | 757.5 |
| 20260506145810 | 61 | 207 | 3.0 | 6.0 | 0.05 | 0.06 | 0.06 | 59 | 757.5 |
| 20260506144210 | 62 | 214 | 1.0 | 3.0 | 0.05 | 0.05 | 0.05 | 59 | 757.5 |
| 20260506143210 | 62 | 214 | 2.0 | 3.0 | 0.04 | 0.04 | 0.04 | 60 | 757.5 |
| 20260506142210 | 62 | 195 | 1.0 | 5.0 | 0.03 | 0.03 | 0.03 | 61 | 757.5 |
| 20260506140625 | 63 | 205 | 3.0 | 6.0 | 0.01 | 0.01 | 0.01 | 63 | 757.5 |
| 20260506135625 | 63 | 201 | 2.0 | 7.0 | 0.01 | 0.01 | 0.01 | 63 | 757.5 |
| 20260506134625 | 64 | 203 | 3.0 | 5.0 | 0.00 | 0.00 | 0.00 | 63 | 757.5 |
| 20260506133030 | 64 | 196 | 3.0 | 5.0 | 0.00 | 0.00 | 0.00 | 63 | 757.5 |
| 20260506132030 | 64 | 211 | 4.0 | 7.0 | 0.00 | 0.00 | 0.00 | 62 | 757.5 |
| 20260506131031 | 64 | 203 | 3.0 | 5.0 | 0.00 | 0.00 | 0.00 | 62 | 757.5 |
| 20260506125433 | 65 | 214 | 3.0 | 7.0 | 0.00 | 0.00 | 0.00 | 61 | 757.5 |
| 20260506124433 | 65 | 194 | 4.0 | 6.0 | 0.00 | 0.00 | 0.00 | 60 | 757.5 |
| 20260506123434 | 66 | 207 | 2.0 | 6.0 | 0.00 | 0.00 | 0.00 | 59 | 757.5 |
| 20260506121840 | 66 | 207 | 5.0 | 7.0 | 0.00 | 0.00 | 0.00 | 57 | 757.5 |
| 20260506120840 | 66 | 202 | 4.0 | 7.0 | 0.00 | 0.00 | 0.00 | 57 | 757.5 |
| 20260506115841 | 66 | 216 | 3.0 | 9.0 | 0.00 | 0.00 | 0.00 | 57 | 757.5 |
| 20260506114247 | 66 | 206 | 3.0 | 9.0 | 0.00 | 0.00 | 0.00 | 57 | 757.5 |
| 20260506113248 | 65 | 207 | 5.0 | 7.0 | 0.00 | 0.00 | 0.00 | 57 | 757.5 |
| 20260506112248 | 66 | 200 | 3.0 | 9.0 | 0.00 | 0.00 | 0.00 | 57 | 757.5 |
| 20260506110652 | 66 | 203 | 4.0 | 8.0 | 0.00 | 0.00 | 0.00 | 57 | 757.5 |
| 20260506105653 | 66 | 213 | 4.0 | 7.0 | 0.00 | 0.00 | 0.00 | 56 | 757.5 |
| 20260506104653 | 66 | 208 | 5.0 | 9.0 | 0.00 | 0.00 | 0.00 | 56 | 757.5 |
| 20260506103010 | 66 | 204 | 4.0 | 9.0 | 0.00 | 0.00 | 0.00 | 56 | 757.5 |
| 20260506102010 | 66 | 216 | 2.0 | 6.0 | 0.00 | 0.00 | 0.00 | 56 | 757.5 |
| 20260506101009 | 66 | 209 | 3.0 | 7.0 | 0.00 | 0.00 | 0.00 | 55 | 757.5 |
| 20260506095419 | 66 | 208 | 5.0 | 8.0 | 0.00 | 0.00 | 0.00 | 55 | 757.5 |
| 20260506094419 | 67 | 200 | 4.0 | 6.0 | 0.00 | 0.00 | 0.00 | 55 | 757.5 |
| 20260506093418 | 67 | 198 | 3.0 | 7.0 | 0.00 | 0.00 | 0.00 | 55 | 757.5 |
| 20260506091834 | 67 | 207 | 4.0 | 7.0 | 0.00 | 0.00 | 0.00 | 55 | 757.5 |
| 20260506090834 | 67 | 212 | 5.0 | 8.0 | 0.00 | 0.00 | 0.00 | 55 | 757.5 |
| 20260506085834 | 67 | 213 | 5.0 | 9.0 | 0.00 | 0.00 | 0.00 | 55 | 757.5 |
| 20260506084239 | 67 | 203 | 3.0 | 7.0 | 0.00 | 0.00 | 0.00 | 54 | 757.5 |
| 20260506083239 | 67 | 209 | 3.0 | 8.0 | 0.00 | 0.00 | 0.00 | 54 | 757.5 |
| 20260506082239 | 67 | 207 | 4.0 | 6.0 | 0.00 | 0.00 | 0.00 | 53 | 757.5 |
| 20260506080658 | 68 | 200 | 3.0 | 6.0 | 0.00 | 0.00 | 0.00 | 53 | 757.5 |
| 20260506073131 | 68 | 210 | 5.0 | 9.0 | 0.00 | 0.00 | 0.00 | 51 | 757.5 |
| 20260506072131 | 68 | 214 | 4.0 | 9.0 | 0.00 | 0.00 | 0.00 | 51 | 757.5 |
| 20260506071131 | 68 | 207 | 4.0 | 7.0 | 0.00 | 0.00 | 0.00 | 50 | 757.5 |
| 20260506062028 | 69 | 206 | 5.0 | 6.0 | 0.00 | 0.00 | 0.00 | 47 | 757.5 |
| 20260506061028 | 69 | 199 | 3.0 | 7.0 | 0.00 | 0.00 | 0.00 | 46 | 757.5 |
| 20260506050911 | 69 | 210 | 3.0 | 5.0 | 0.00 | 0.00 | 0.00 | 44 | 757.5 |
| 20260506044912 | 69 | 183 | 2.0 | 5.0 | 0.00 | 0.00 | 0.00 | 44 | 757.5 |
| 20260506043334 | 69 | 211 | 1.0 | 3.0 | 0.00 | 0.00 | 0.00 | 44 | 757.5 |
| 20260506042337 | 70 | 211 | 1.0 | 3.0 | 0.00 | 0.00 | 0.00 | 44 | 757.5 |
| 20260506041335 | 70 | 209 | 3.0 | 5.0 | 0.00 | 0.00 | 0.00 | 43 | 757.5 |
| 20260506035758 | 70 | 195 | 1.0 | 4.0 | 0.00 | 0.00 | 0.00 | 42 | 757.5 |
| 20260506034758 | 70 | 195 | 2.0 | 5.0 | 0.00 | 0.00 | 0.00 | 42 | 757.5 |
| 20260506033758 | 70 | 202 | 2.0 | 4.0 | 0.00 | 0.00 | 0.00 | 42 | 757.5 |
| 20260506032235 | 70 | 214 | 1.0 | 4.0 | 0.00 | 0.00 | 0.00 | 41 | 757.5 |
| 20260506031235 | 70 | 207 | 3.0 | 5.0 | 0.00 | 0.00 | 0.00 | 41 | 757.5 |
| 20260506030234 | 70 | 202 | 2.0 | 6.0 | 0.00 | 0.00 | 0.00 | 41 | 757.5 |
| 20260506025235 | 71 | 213 | 2.0 | 4.0 | 0.00 | 0.00 | 0.00 | 41 | 757.5 |
| 20260506024235 | 71 | 201 | 2.0 | 4.0 | 0.00 | 0.00 | 0.00 | 40 | 757.5 |
| 20260506022702 | 71 | 196 | 3.0 | 5.0 | 0.00 | 0.00 | 0.00 | 38 | 757.5 |
| 20260506021702 | 72 | 208 | 3.0 | 5.0 | 0.00 | 0.00 | 0.00 | 38 | 757.5 |
| 20260506020702 | 72 | 203 | 3.0 | 4.0 | 0.00 | 0.00 | 0.00 | 38 | 757.5 |
| 20260506015135 | 72 | 194 | 2.0 | 5.0 | 0.00 | 0.00 | 0.00 | 37 | 757.5 |
| 20260506014135 | 73 | 199 | 2.0 | 5.0 | 0.00 | 0.00 | 0.00 | 36 | 757.5 |
| 20260506013135 | 73 | 208 | 3.0 | 6.0 | 0.00 | 0.00 | 0.00 | 35 | 757.5 |
| 20260506011558 | 74 | 205 | 2.0 | 4.0 | 0.00 | 0.00 | 0.00 | 34 | 757.5 |
| 20260506010558 | 74 | 202 | 3.0 | 5.0 | 0.00 | 0.00 | 0.00 | 33 | 757.5 |
| 20260506005558 | 74 | 210 | 2.0 | 4.0 | 0.00 | 0.00 | 0.00 | 32 | 757.5 |
| 20260506004027 | 75 | 208 | 1.0 | 5.0 | 0.00 | 0.00 | 0.00 | 31 | 757.5 |
| 20260506003028 | 76 | 209 | 2.0 | 4.0 | 0.00 | 0.00 | 0.00 | 30 | 757.5 |
| 20260506002027 | 76 | 206 | 4.0 | 6.0 | 0.00 | 0.00 | 0.00 | 29 | 757.5 |
| 20260506000505 | 76 | 208 | 3.0 | 7.0 | 0.00 | 0.00 | 0.00 | 29 | 757.5 |
| 20260505235506 | 76 | 207 | 4.0 | 6.0 | 0.00 | 0.00 | 0.00 | 29 | 757.5 |
| 20260505234504 | 77 | 207 | 3.0 | 6.0 | 0.00 | 0.00 | 0.00 | 29 | 757.5 |
| 20260505233010 | 77 | 201 | 2.0 | 10.0 | 0.00 | 0.00 | 0.00 | 29 | 757.5 |
| 20260505232010 | 78 | 206 | 3.0 | 6.0 | 0.00 | 0.00 | 0.00 | 28 | 757.5 |